TimeCDT,TemperatureF,Dew PointF,Humidity,Sea Level PressureIn,VisibilityMPH,Wind Direction,Wind SpeedMPH,Gust SpeedMPH,PrecipitationIn,Events,Conditions,WindDirDegrees,DateUTC
12:15 AM,69.8,55.4,60,30.22,10.0,SE,6.9,-,N/A,,Clear,140,2013-07-27 05:15:00
12:35 AM,66.2,55.4,68,30.23,10.0,SSE,5.8,-,N/A,,Clear,150,2013-07-27 05:35:00
12:55 AM,66.2,55.4,68,30.22,10.0,SSE,6.9,-,N/A,,Clear,160,2013-07-27 05:55:00
1:15 AM,66.2,55.4,68,30.22,10.0,South,5.8,-,N/A,,Clear,170,2013-07-27 06:15:00
1:35 AM,64.4,55.4,73,30.21,10.0,South,5.8,-,N/A,,Clear,180,2013-07-27 06:35:00
1:55 AM,64.4,55.4,73,30.21,10.0,South,6.9,-,N/A,,Clear,180,2013-07-27 06:55:00
2:15 AM,64.4,55.4,73,30.20,10.0,South,6.9,-,N/A,,Clear,180,2013-07-27 07:15:00
2:35 AM,64.4,55.4,73,30.18,10.0,South,8.1,-,N/A,,Clear,180,2013-07-27 07:35:00
2:55 AM,64.4,55.4,73,30.18,10.0,South,8.1,-,N/A,,Clear,190,2013-07-27 07:55:00
3:15 AM,62.6,55.4,77,30.18,10.0,SSW,8.1,-,N/A,,Clear,210,2013-07-27 08:15:00
3:35 AM,64.4,55.4,73,30.17,10.0,SSW,8.1,-,N/A,,Clear,200,2013-07-27 08:35:00
3:55 AM,62.6,55.4,77,30.16,10.0,SSW,9.2,-,N/A,,Clear,200,2013-07-27 08:55:00
4:15 AM,62.6,55.4,77,30.16,10.0,SSW,9.2,-,N/A,,Clear,200,2013-07-27 09:15:00
4:35 AM,64.4,55.4,73,30.16,10.0,SSW,9.2,-,N/A,,Clear,210,2013-07-27 09:35:00
4:55 AM,62.6,55.4,77,30.15,10.0,SW,6.9,-,N/A,,Clear,220,2013-07-27 09:55:00
5:15 AM,62.6,55.4,77,30.15,10.0,SW,6.9,-,N/A,,Clear,230,2013-07-27 10:15:00
5:35 AM,60.8,55.4,82,30.16,10.0,WSW,5.8,-,N/A,,Clear,250,2013-07-27 10:35:00
5:55 AM,60.8,55.4,82,30.15,10.0,WSW,6.9,-,N/A,,Clear,240,2013-07-27 10:55:00
6:15 AM,60.8,55.4,82,30.15,10.0,SW,4.6,-,N/A,,Clear,230,2013-07-27 11:15:00
6:35 AM,62.6,55.4,77,30.15,10.0,SW,5.8,-,N/A,,Clear,220,2013-07-27 11:35:00
6:55 AM,60.8,55.4,82,30.15,10.0,SW,6.9,-,N/A,,Clear,220,2013-07-27 11:55:00
7:15 AM,62.6,55.4,77,30.15,10.0,SW,8.1,-,N/A,,Clear,230,2013-07-27 12:15:00
7:35 AM,64.4,57.2,77,30.14,10.0,SW,8.1,-,N/A,,Clear,230,2013-07-27 12:35:00
7:55 AM,64.4,59.0,83,30.15,10.0,SW,9.2,-,N/A,,Clear,220,2013-07-27 12:55:00
8:15 AM,68.0,60.8,78,30.14,10.0,SSW,12.7,-,N/A,,Clear,210,2013-07-27 13:15:00
8:35 AM,69.8,60.8,73,30.14,10.0,SSW,12.7,-,N/A,,Clear,210,2013-07-27 13:35:00
8:55 AM,71.6,60.8,69,30.13,10.0,SSW,15.0,-,N/A,,Clear,200,2013-07-27 13:55:00
9:15 AM,73.4,62.6,69,30.13,10.0,SSW,15.0,-,N/A,,Clear,200,2013-07-27 14:15:00
9:35 AM,75.2,62.6,65,30.13,10.0,SSW,16.1,-,N/A,,Clear,210,2013-07-27 14:35:00
9:55 AM,77.0,62.6,61,30.12,10.0,SSW,17.3,-,N/A,,Clear,200,2013-07-27 14:55:00
10:15 AM,78.8,62.6,57,30.12,10.0,SSW,16.1,-,N/A,,Clear,200,2013-07-27 15:15:00
10:35 AM,80.6,62.6,54,30.12,10.0,SSW,13.8,20.7,N/A,,Clear,210,2013-07-27 15:35:00
10:55 AM,82.4,62.6,51,30.11,10.0,SSW,13.8,-,N/A,,Clear,210,2013-07-27 15:55:00
11:15 AM,84.2,60.8,45,30.10,10.0,SSW,15.0,-,N/A,,Clear,210,2013-07-27 16:15:00
11:35 AM,84.2,60.8,45,30.09,10.0,South,16.1,-,N/A,,Clear,190,2013-07-27 16:35:00
11:55 AM,86.0,60.8,43,30.09,10.0,SSW,17.3,24.2,N/A,,Clear,210,2013-07-27 16:55:00
12:15 PM,87.8,59.0,38,30.08,10.0,SSW,16.1,23.0,N/A,,Clear,200,2013-07-27 17:15:00
12:35 PM,87.8,59.0,38,30.07,10.0,SSW,19.6,25.3,N/A,,Clear,200,2013-07-27 17:35:00
12:55 PM,89.6,57.2,33,30.06,10.0,South,13.8,-,N/A,,Clear,180,2013-07-27 17:55:00
1:15 PM,89.6,57.2,33,30.05,10.0,South,16.1,25.3,N/A,,Clear,190,2013-07-27 18:15:00
1:35 PM,91.4,57.2,31,30.04,10.0,SSW,17.3,24.2,N/A,,Clear,210,2013-07-27 18:35:00
1:55 PM,91.4,57.2,31,30.03,10.0,SSW,15.0,25.3,N/A,,Clear,200,2013-07-27 18:55:00
2:15 PM,93.2,57.2,30,30.02,10.0,South,21.9,28.8,N/A,,Clear,190,2013-07-27 19:15:00
2:35 PM,93.2,55.4,28,30.01,10.0,SSW,18.4,28.8,N/A,,Clear,210,2013-07-27 19:35:00
2:55 PM,93.2,55.4,28,30.00,10.0,South,20.7,31.1,N/A,,Clear,190,2013-07-27 19:55:00
3:15 PM,95.0,53.6,25,29.99,10.0,SSW,20.7,26.5,N/A,,Clear,200,2013-07-27 20:15:00
3:35 PM,95.0,53.6,25,29.98,10.0,SSW,19.6,26.5,N/A,,Clear,210,2013-07-27 20:35:00
3:55 PM,95.0,51.8,23,29.98,10.0,South,21.9,28.8,N/A,,Clear,190,2013-07-27 20:55:00
4:15 PM,95.0,53.6,25,29.96,10.0,SSW,20.7,27.6,N/A,,Clear,210,2013-07-27 21:15:00
4:35 PM,95.0,53.6,25,29.95,10.0,South,27.6,32.2,N/A,,Clear,190,2013-07-27 21:35:00
4:55 PM,95.0,53.6,25,29.94,10.0,South,21.9,29.9,N/A,,Clear,190,2013-07-27 21:55:00
5:15 PM,96.8,51.8,22,29.93,10.0,SSW,20.7,31.1,N/A,,Clear,200,2013-07-27 22:15:00
5:35 PM,95.0,50.0,22,29.93,10.0,SSW,24.2,31.1,N/A,,Clear,200,2013-07-27 22:35:00
5:55 PM,95.0,48.2,20,29.91,10.0,South,24.2,-,N/A,,Clear,190,2013-07-27 22:55:00
6:15 PM,93.2,48.2,21,29.89,10.0,SSW,27.6,33.4,N/A,,Clear,200,2013-07-27 23:15:00
6:35 PM,93.2,48.2,21,29.88,10.0,South,27.6,34.5,N/A,,Clear,190,2013-07-27 23:35:00
6:55 PM,93.2,48.2,21,29.90,10.0,South,24.2,35.7,N/A,,Clear,190,2013-07-27 23:55:00
7:15 PM,91.4,48.2,23,29.90,10.0,South,21.9,28.8,N/A,,Clear,180,2013-07-28 00:15:00
7:35 PM,89.6,48.2,24,29.91,10.0,South,21.9,27.6,N/A,,Clear,190,2013-07-28 00:35:00
7:55 PM,89.6,48.2,24,29.91,10.0,South,18.4,28.8,N/A,,Clear,180,2013-07-28 00:55:00
8:15 PM,87.8,46.4,24,29.93,10.0,South,15.0,-,N/A,,Clear,170,2013-07-28 01:15:00
8:35 PM,87.8,50.0,27,29.95,10.0,South,13.8,21.9,N/A,,Clear,170,2013-07-28 01:35:00
8:55 PM,86.0,50.0,29,29.93,10.0,SSE,15.0,-,N/A,,Clear,160,2013-07-28 01:55:00
9:15 PM,84.2,50.0,30,29.94,10.0,SSE,15.0,-,N/A,,Clear,150,2013-07-28 02:15:00
9:35 PM,84.2,51.8,33,29.95,10.0,SE,15.0,-,N/A,Thunderstorm,Clear,140,2013-07-28 02:35:00
9:55 PM,84.2,51.8,33,29.97,10.0,SE,11.5,-,N/A,Thunderstorm,Clear,130,2013-07-28 02:55:00
10:15 PM,82.4,51.8,35,29.97,10.0,SE,10.4,-,N/A,Thunderstorm,Scattered Clouds,130,2013-07-28 03:15:00
10:35 PM,82.4,51.8,35,29.98,10.0,SSE,10.4,-,N/A,Thunderstorm,Thunderstorm,150,2013-07-28 03:35:00
10:55 PM,80.6,53.6,39,29.96,10.0,SSE,15.0,19.6,N/A,,Mostly Cloudy,160,2013-07-28 03:55:00
11:15 PM,80.6,51.8,37,29.94,10.0,South,19.6,-,N/A,,Partly Cloudy,170,2013-07-28 04:15:00
11:35 PM,78.8,51.8,39,29.93,10.0,South,18.4,23.0,N/A,,Clear,180,2013-07-28 04:35:00
11:55 PM,78.8,51.8,39,29.95,10.0,South,9.2,-,N/A,,Clear,170,2013-07-28 04:55:00